Location: Coopersdale
(40.3556°N, 78.9372°W)
Time: 21:57:39
(UTC+00:00)

Explorer 11/Cluster Stage 4 - Pass Details

Date: 28 January 2021
Orbit: 467 x 1257 km, 28.8° (Epoch: 25 February)

Event Time Altitude Azimuth Distance (km) Brightness Sun altitude
Rises 00:48:50 0° 229° (SW) 2,921 10.3 -26.8°
Reaches altitude 10° 00:51:29 10° 212° (SSW) 2,141 9.2 -27.3°
Enters shadow 00:54:10 20° 181° (S) 1,708 8.3 -27.8°
